TimeCEST,TemperatureF,Dew PointF,Humidity,Sea Level PressureIn,VisibilityMPH,Wind Direction,Wind SpeedMPH,Gust SpeedMPH,PrecipitationIn,Events,Conditions,WindDirDegrees,DateUTC
12:00 AM,69.8,64.4,83,29.92,6.2,ENE,2.3,-,N/A,,Partly Cloudy,60,2013-09-05 22:00:00
12:30 AM,69.8,64.4,83,29.92,6.2,Variable,2.3,-,N/A,,Partly Cloudy,0,2013-09-05 22:30:00
1:00 AM,69.8,64.4,83,29.92,-9999.0,NE,2.3,-,N/A,,Clear,40,2013-09-05 23:00:00
1:30 AM,69.8,64.4,83,29.92,-9999.0,Calm,Calm,-,N/A,,Clear,0,2013-09-05 23:30:00
2:00 AM,68,64,82,29.94,12,NNE,1.2,,,,Clear,20,2013-09-06 00:00:00
2:00 AM,68.0,62.6,83,29.92,-9999.0,NE,1.2,-,N/A,,Clear,40,2013-09-06 00:00:00
2:30 AM,68.0,64.4,88,29.92,-9999.0,Calm,Calm,-,N/A,,Clear,0,2013-09-06 00:30:00
3:00 AM,66.2,62.6,88,29.92,-9999.0,Calm,Calm,-,N/A,,Clear,0,2013-09-06 01:00:00
3:30 AM,66.2,62.6,88,29.92,-9999.0,Calm,Calm,-,N/A,,Clear,0,2013-09-06 01:30:00
4:00 AM,66.2,62.6,88,29.92,-9999.0,Variable,1.2,-,N/A,,Clear,0,2013-09-06 02:00:00
4:30 AM,66.2,62.6,88,29.89,-9999.0,Calm,Calm,-,N/A,,Clear,0,2013-09-06 02:30:00
5:00 AM,66.2,62.6,88,29.89,-9999.0,Calm,Calm,-,N/A,,Clear,0,2013-09-06 03:00:00
5:30 AM,64.4,62.6,94,29.89,-9999.0,Calm,Calm,-,N/A,,Clear,0,2013-09-06 03:30:00
6:00 AM,64.4,60.8,88,29.89,-9999.0,Calm,Calm,-,N/A,,Clear,0,2013-09-06 04:00:00
6:30 AM,64.4,60.8,88,29.89,-9999.0,Calm,Calm,-,N/A,,Clear,0,2013-09-06 04:30:00
7:00 AM,62.6,60.8,94,29.89,-9999.0,Calm,Calm,-,N/A,,Clear,0,2013-09-06 05:00:00
7:30 AM,64.4,60.8,88,29.89,-9999.0,Calm,Calm,-,N/A,,Clear,0,2013-09-06 05:30:00
8:00 AM,64,62,90,29.92,19,Calm,Calm,,,,Clear,,2013-09-06 06:00:00
8:00 AM,64.4,62.6,94,29.92,-9999.0,Calm,Calm,-,N/A,,Clear,0,2013-09-06 06:00:00
8:30 AM,68.0,64.4,88,29.92,-9999.0,Calm,Calm,-,N/A,,Clear,0,2013-09-06 06:30:00
9:00 AM,69.8,66.2,88,29.92,6.2,Calm,Calm,-,N/A,,Partly Cloudy,0,2013-09-06 07:00:00
9:30 AM,75.2,66.2,73,29.92,6.2,Variable,1.2,-,N/A,,Partly Cloudy,0,2013-09-06 07:30:00
10:00 AM,77.0,68.0,74,29.92,6.2,Calm,Calm,-,N/A,,Partly Cloudy,0,2013-09-06 08:00:00
10:30 AM,78.8,68.0,69,29.92,6.2,SW,3.5,-,N/A,,Partly Cloudy,230,2013-09-06 08:30:00
11:00 AM,80.6,66.2,61,29.92,6.2,SW,3.5,-,N/A,,Partly Cloudy,230,2013-09-06 09:00:00
11:30 AM,80.6,66.2,61,29.92,6.2,SW,8.1,-,N/A,,Partly Cloudy,230,2013-09-06 09:30:00
12:00 PM,82.4,66.2,58,29.92,6.2,WSW,5.8,-,N/A,,Partly Cloudy,240,2013-09-06 10:00:00
12:30 PM,82.4,68.0,62,29.92,6.2,SW,8.1,-,N/A,,Partly Cloudy,230,2013-09-06 10:30:00
1:00 PM,82.4,66.2,58,29.92,6.2,SW,10.4,-,N/A,,Partly Cloudy,230,2013-09-06 11:00:00
1:30 PM,82.4,66.2,58,29.92,6.2,SW,11.5,-,N/A,,Partly Cloudy,230,2013-09-06 11:30:00
2:00 PM,84,63,39,29.94,19,SW,13.8,,,,Scattered Clouds,220,2013-09-06 12:00:00
2:00 PM,84.2,66.2,55,29.92,6.2,SW,11.5,-,N/A,,Partly Cloudy,230,2013-09-06 12:00:00
2:30 PM,82.4,68.0,62,29.92,6.2,SW,13.8,-,N/A,,Partly Cloudy,230,2013-09-06 12:30:00
3:00 PM,84.2,64.4,51,29.92,6.2,SW,11.5,-,N/A,,Partly Cloudy,230,2013-09-06 13:00:00
3:30 PM,84.2,62.6,48,29.92,6.2,SW,11.5,-,N/A,,Partly Cloudy,230,2013-09-06 13:30:00
4:00 PM,82.4,68.0,62,29.92,6.2,SW,12.7,-,N/A,,Partly Cloudy,220,2013-09-06 14:00:00
4:30 PM,82.4,68.0,62,29.89,6.2,WSW,13.8,-,N/A,,Partly Cloudy,240,2013-09-06 14:30:00
5:00 PM,82.4,68.0,62,29.89,6.2,SW,11.5,-,N/A,,Partly Cloudy,220,2013-09-06 15:00:00
5:30 PM,82.4,68.0,62,29.89,6.2,SW,11.5,-,N/A,,Partly Cloudy,230,2013-09-06 15:30:00
6:00 PM,80.6,68.0,65,29.92,6.2,SW,11.5,-,N/A,,Partly Cloudy,220,2013-09-06 16:00:00
6:30 PM,80.6,68.0,65,29.92,6.2,SW,10.4,-,N/A,,Partly Cloudy,230,2013-09-06 16:30:00
7:00 PM,78.8,68.0,69,29.92,6.2,SW,9.2,-,N/A,,Partly Cloudy,220,2013-09-06 17:00:00
7:30 PM,78.8,68.0,69,29.92,6.2,SW,8.1,-,N/A,,Partly Cloudy,220,2013-09-06 17:30:00
8:00 PM,78,67,60,29.93,19,SW,9.2,,,,Scattered Clouds,220,2013-09-06 18:00:00
8:00 PM,78.8,68.0,69,29.92,6.2,SW,6.9,-,N/A,,Partly Cloudy,220,2013-09-06 18:00:00
8:30 PM,77.0,68.0,74,29.92,6.2,SSW,2.3,-,N/A,,Partly Cloudy,210,2013-09-06 18:30:00
9:00 PM,77.0,68.0,74,29.95,6.2,SSW,2.3,-,N/A,,Partly Cloudy,210,2013-09-06 19:00:00
9:30 PM,77.0,68.0,74,29.95,6.2,South,1.2,-,N/A,,Partly Cloudy,170,2013-09-06 19:30:00
10:00 PM,75.2,68.0,78,29.95,6.2,SE,1.2,-,N/A,,Partly Cloudy,140,2013-09-06 20:00:00
10:30 PM,75.2,66.2,73,29.95,6.2,SSE,1.2,-,N/A,,Partly Cloudy,150,2013-09-06 20:30:00
11:00 PM,71.6,66.2,83,29.95,6.2,SE,1.2,-,N/A,,Partly Cloudy,130,2013-09-06 21:00:00
11:30 PM,69.8,66.2,88,29.98,6.2,Calm,Calm,-,N/A,,Partly Cloudy,0,2013-09-06 21:30:00